TimeMST,TemperatureF,Dew PointF,Humidity,Sea Level PressureIn,VisibilityMPH,Wind Direction,Wind SpeedMPH,Gust SpeedMPH,PrecipitationIn,Events,Conditions,WindDirDegrees,DateUTC
12:48 AM,39.9,36.0,86,29.61,-9999.0,ESE,6.9,-,N/A,,Unknown,110,2013-11-08 07:48:00
1:48 AM,37.9,35.1,89,29.61,-9999.0,ESE,3.5,-,N/A,,Unknown,110,2013-11-08 08:48:00
2:48 AM,36.0,34.0,93,29.62,-9999.0,West,3.5,-,N/A,,Unknown,270,2013-11-08 09:48:00
3:48 AM,44.1,39.9,85,29.62,-9999.0,West,17.3,25.3,0.05,,Unknown,280,2013-11-08 10:48:00
4:48 AM,42.1,37.9,85,29.66,-9999.0,West,23.0,34.5,0.02,,Unknown,280,2013-11-08 11:48:00
5:48 AM,39.9,37.0,89,29.67,-9999.0,West,17.3,25.3,0.02,,Unknown,270,2013-11-08 12:48:00
6:48 AM,41.0,36.0,82,29.69,-9999.0,West,21.9,31.1,N/A,,Unknown,280,2013-11-08 13:48:00
7:48 AM,42.1,35.1,76,29.71,-9999.0,West,9.2,-,N/A,,Unknown,260,2013-11-08 14:48:00
8:48 AM,43.0,35.1,74,29.72,-9999.0,WSW,12.7,-,N/A,,Unknown,250,2013-11-08 15:48:00
9:48 AM,46.9,33.1,59,29.72,-9999.0,West,19.6,29.9,N/A,,Unknown,270,2013-11-08 16:48:00
10:48 AM,50.0,30.9,48,29.73,-9999.0,West,24.2,33.4,N/A,,Unknown,280,2013-11-08 17:48:00
11:48 AM,52.0,28.9,41,29.74,-9999.0,West,24.2,38.0,N/A,,Unknown,280,2013-11-08 18:48:00
12:48 PM,50.0,28.0,43,29.75,-9999.0,WNW,25.3,39.1,N/A,,Unknown,290,2013-11-08 19:48:00
1:48 PM,48.9,28.0,44,29.78,-9999.0,WNW,24.2,34.5,N/A,,Unknown,290,2013-11-08 20:48:00
2:48 PM,48.0,28.0,46,29.83,-9999.0,WNW,26.5,32.2,N/A,,Unknown,290,2013-11-08 21:48:00
3:48 PM,45.0,30.9,58,29.83,-9999.0,NW,12.7,-,N/A,,Unknown,310,2013-11-08 22:48:00
4:48 PM,39.9,28.9,65,29.86,-9999.0,NNW,8.1,-,N/A,,Unknown,330,2013-11-08 23:48:00
5:48 PM,37.9,30.9,76,29.90,-9999.0,NNW,9.2,-,N/A,,Unknown,330,2013-11-09 00:48:00
6:48 PM,30.0,27.0,88,29.93,-9999.0,West,5.8,-,N/A,,Unknown,280,2013-11-09 01:48:00
7:48 PM,33.1,28.9,85,29.94,-9999.0,WNW,4.6,-,N/A,,Unknown,290,2013-11-09 02:48:00
8:48 PM,33.1,30.0,89,29.98,-9999.0,West,5.8,-,N/A,,Unknown,280,2013-11-09 03:48:00
9:48 PM,36.0,33.1,89,29.99,-9999.0,NNW,6.9,-,0.01,,Unknown,330,2013-11-09 04:48:00
10:48 PM,35.1,33.1,92,30.01,-9999.0,NNW,5.8,-,N/A,,Unknown,330,2013-11-09 05:48:00
11:48 PM,34.0,32.0,92,30.03,-9999.0,NW,5.8,-,N/A,,Unknown,310,2013-11-09 06:48:00